Location: Home
(42.5358°N, 72.7383°W)
Time: 00:10:32
(UTC-04:00)

DELTA 1 DEB - Pass Details

Date: 26 June 2022
Orbit: 600 x 774 km, 98.5° (Epoch: 16 August)

Event Time Altitude Azimuth Distance (km) Brightness Sun altitude
Exits shadow 23:37:15 22° 225° (SW) 1,620 ? -21.8°
Maximum altitude 23:39:21 30° 264° (W) 1,355 ? -21.9°
Drops below altitude 10° 23:43:48 10° 325° (NW) 2,296 ? -22.2°
Sets 23:46:22 0° 336° (NNW) 3,206 ? -22.3°
